Total_Precipitation_Accumulation
0.03 0.03 0.03 0.08 0.13 0.12 0.68 1.07 1.37 1.54 2.26 2.06 1.90 1.37 1.31 1.21 1.38 1.33 1.15 1.31 1.49 1.06 0.78 0.61 0.61 0.69 0.59 0.57 0.74 0.74 0.75 0.65
0.01 0.02 0.05 0.08 0.13 0.31 0.81 1.22 1.54 1.23 0.89 0.69 0.95 0.86 0.81 1.07 1.36 1.12 0.84 1.04 1.20 1.42 0.95 0.64 0.61 0.68 0.74 0.95 0.92 0.82 0.55 0.77
0.02 0.04 0.10 0.14 0.27 0.38 0.41 0.39 0.55 0.24 0.18 0.27 0.60 0.71 0.81 0.89 1.10 0.88 0.78 0.98 1.24 1.28 1.21 1.08 0.71 0.70 0.80 1.22 1.26 1.23 0.74 1.05
0.02 0.09 0.13 0.15 0.15 0.18 0.06 0.06 0.29 0.24 0.15 0.26 0.51 0.87 1.04 1.19 1.44 1.29 0.92 1.09 1.10 1.33 1.09 1.34 1.21 1.21 1.05 1.21 1.43 1.23 0.83 0.97
0.01 0.01 0.02 0.02 0.02 0.03 0.02 0.07 0.15 0.25 0.30 0.36 0.45 0.70 0.75 0.85 0.89 1.16 0.97 0.94 1.08 1.23 1.31 1.46 1.46 1.39 1.38 1.27 1.46 1.38 1.32 1.02
0.00 0.01 0.02 0.02 0.06 0.09 0.19 0.20 0.22 0.24 0.30 0.46 0.39 0.53 0.69 0.78 0.94 1.21 1.35 0.98 0.81 0.84 1.13 1.29 1.44 1.41 1.35 1.42 1.40 1.51 1.48 1.64
0.01 0.02 0.02 0.08 0.26 0.26 0.28 0.24 0.27 0.31 0.37 0.42 0.44 0.42 0.39 0.39 0.69 1.08 1.74 1.72 1.17 0.95 1.03 1.09 1.24 1.36 1.25 1.48 1.57 1.45 1.70 1.80
0.02 0.02 0.07 0.21 0.40 0.42 0.41 0.34 0.30 0.38 0.43 0.47 0.47 0.52 0.45 0.42 0.42 0.58 1.07 2.14 2.18 1.71 1.31 1.31 1.44 1.67 1.86 1.83 1.88 1.84 1.66 1.69
0.01 0.05 0.11 0.18 0.49 0.53 0.51 0.59 0.63 0.33 0.30 0.40 0.41 0.35 0.36 0.32 0.39 0.44 0.48 0.76 1.40 1.66 1.50 1.25 1.63 2.15 2.25 2.51 2.43 2.26 2.30 2.23
0.09 0.18 0.26 0.32 0.43 0.40 0.34 0.31 0.24 0.21 0.22 0.21 0.30 0.43 0.40 0.40 0.56 0.44 0.60 0.56 0.82 1.17 1.50 1.36 1.23 1.54 2.04 2.37 2.32 2.26 2.31 2.23
0.36 0.47 0.40 0.39 0.42 0.37 0.36 0.32 0.30 0.25 0.17 0.17 0.20 0.35 0.39 0.40 0.54 0.38 0.50 0.57 0.81 1.22 1.53 1.89 1.89 1.51 1.51 2.10 2.19 2.10 2.00 1.77
0.57 0.92 0.84 0.58 0.43 0.35 0.38 0.50 0.46 0.40 0.28 0.27 0.29 0.49 0.49 0.53 0.55 0.59 0.60 0.80 1.05 1.32 1.71 2.25 2.81 2.52 2.18 1.96 1.94 1.86 1.70 1.56
0.87 1.21 1.60 1.13 0.78 0.57 0.35 0.42 0.40 0.58 0.74 0.61 0.57 0.71 0.70 0.71 0.87 0.89 0.99 1.17 1.28 1.55 1.88 2.30 2.63 2.90 2.74 2.44 2.09 1.86 1.84 1.60
1.30 1.46 1.73 1.69 1.30 1.00 0.62 0.50 0.38 0.40 0.58 0.98 0.92 1.03 0.83 1.10 1.19 1.43 1.67 1.75 1.84 1.89 1.94 2.06 2.21 2.30 2.60 2.38 1.91 1.56 1.57 1.50
0.94 1.13 1.45 1.63 1.53 1.39 0.95 0.95 0.79 0.67 0.64 0.67 0.63 0.77 1.04 1.26 1.28 1.37 1.75 1.90 1.72 1.45 1.41 1.41 1.15 1.15 1.55 1.82 1.91 1.92 1.80 1.72
0.61 0.64 0.59 0.58 0.65 0.68 0.76 0.66 0.65 0.72 0.68 0.69 0.59 0.72 1.13 1.33 1.64 1.66 1.41 1.13 1.03 0.99 0.90 0.85 0.84 0.99 1.40 1.53 1.68 1.76 2.01 2.06
0.29 0.22 0.23 0.27 0.33 0.39 0.52 0.61 0.53 0.49 0.50 0.46 0.61 0.76 0.68 0.76 0.74 0.67 0.72 0.87 0.90 0.79 0.61 0.57 0.56 0.66 1.22 1.47 1.77 1.78 1.91 2.24
0.15 0.21 0.17 0.27 0.29 0.31 0.44 0.57 0.56 0.41 0.35 0.35 0.39 0.41 0.42 0.37 0.32 0.36 0.43 0.49 0.54 0.66 0.77 0.61 0.42 0.63 1.19 1.10 1.54 1.51 1.74 2.13
0.06 0.09 0.06 0.13 0.26 0.44 0.51 0.55 0.60 0.58 0.39 0.29 0.23 0.22 0.26 0.34 0.49 0.59 0.60 0.58 0.49 0.47 0.60 1.01 1.40 1.26 1.33 1.17 1.32 1.15 1.30 1.75